[[{"header":{"parameterUnit":"m.s-1","parameterCategory":1,"la1":30.2991,"la2":30.254,"lo1":-89.0895,"lo2":-89.0444,"dy":0.0017,"dx":0.0017,"nx":28,"ny":28,"refTime":"2023-08-10T03:00:00:Z","depth":0,"parameterNumber":2,"parameterNumberName":"U-component_of_WINDS"},"data":[0,0,0,0,0,0,0,0,0,0,0,0,0,0,0,0,0,0,0,0,0,0,0,0,0,0,0,0,0,0,0,0,0,0,0,0,0,0,0,0,0,0,0,0,0,0,0,0,0,0,0,0,0,0,0,0,0,0,4.0725,4.0725,0,4.0745,4.0745,4.0745,4.0653,4.065,4.0647,4.0645,4.0666,4.0669,4.0672,0,0,0,0,0,0,0,0,0,0,0,0,0,4.0605,4.0608,4.0725,4.0725,4.0725,4.0745,4.0745,4.0745,4.0653,4.065,4.0647,4.0644,4.0665,4.0669,4.0673,0,0,0,0,0,0,0,0,0,0,0,0,0,4.0644,4.0609,4.0725,4.0682,4.0678,4.0745,4.0745,4.0745,4.0654,4.065,4.0646,4.0642,4.0664,4.0669,4.0673,4.0783,0,0,4.0687,4.0689,0,0,0,0,0,0,0,0,4.0642,4.0649,4.0688,4.0685,4.0681,4.0692,4.0711,4.0758,4.0655,4.0663,4.0645,4.064,4.0678,4.0681,4.0694,4.0784,4.0784,4.0688,4.069,4.0692,4.0694,0,0,0,0,0,0,0,4.064,4.0648,4.0733,4.0688,4.0684,4.0661,4.0662,4.0719,4.0693,4.0662,4.0655,4.0659,4.0675,4.069,4.0694,4.0785,4.0688,4.0692,4.0694,4.0696,4.0961,4.0965,0,0,0,0,0,0,4.0643,4.0646,4.0732,4.0733,4.0651,4.0666,4.0667,4.0693,4.0692,4.0688,4.0662,4.0655,4.0684,4.0689,4.0694,4.0819,4.0692,4.0697,4.0699,4.0956,4.0961,4.0966,0,0,0,0,0,0,4.0641,4.0651,4.0731,4.0688,4.0696,4.0673,4.0702,4.0695,4.0709,4.0692,4.0687,4.0682,4.0681,4.0688,4.076,4.0818,4.0699,4.0703,4.0951,4.0958,4.0964,4.1071,0,0,0,0,0,0,4.0638,4.0651,4.0693,4.0689,4.0699,4.0797,4.0705,4.0698,4.0717,4.0707,4.0709,4.0706,4.0678,4.0754,4.0765,4.0822,4.0707,4.0946,4.0954,4.0962,4.1062,4.108,4.1095,0,0,0,0,0,4.0634,4.0723,4.0696,4.0706,4.0751,4.0801,4.0806,4.0773,4.0723,4.0763,4.0752,4.0706,4.0811,4.0762,4.0774,4.0834,4.0942,4.0952,4.0961,4.1054,4.1076,4.1095,0,0,0,0,0,0,4.0735,4.0722,4.0691,4.0783,4.0793,4.0785,4.0836,4.0798,4.0823,4.0813,4.077,4.0772,4.085,4.085,4.0796,4.0937,4.0868,4.088,4.0934,4.0955,4.0972,4.0969,4.071,0,0,0,0,0,4.0769,4.0811,4.0797,4.0879,4.0886,4.086,4.0881,4.0854,4.0864,4.0868,4.0862,4.0873,4.0908,4.0932,4.0964,4.1062,4.1059,4.1109,4.1126,4.114,4.115,4.1198,4.1218,4.0997,4.0997,4.0997,0,0,4.0837,4.0835,4.0865,4.0899,4.0904,4.0947,4.0865,4.0916,4.0946,4.0876,4.0942,4.0939,4.0948,4.1033,4.107,4.1035,4.1211,4.1152,4.1163,4.1166,4.121,4.1231,4.1249,4.1004,4.1003,4.1002,0,0,4.0983,4.0988,4.1054,4.1061,4.1069,4.1051,4.1067,4.1065,4.1059,4.1125,4.1072,4.1109,4.1171,4.1179,4.1191,4.1338,4.1295,4.135,4.1436,4.1484,4.1501,4.1516,4.1565,4.1583,4.1361,4.1361,4.1361,0,4.1068,4.1131,4.1094,4.1146,4.1162,4.1099,4.1164,4.1173,4.1192,4.1204,4.1164,4.1238,4.1241,4.1324,4.136,4.1373,4.1388,4.1348,4.1502,4.1516,4.153,4.1576,4.1595,4.1367,4.1367,4.1366,4.1365,0,4.1232,4.1277,4.1329,4.1347,4.1369,4.1428,4.1399,4.1425,4.1396,4.1382,4.1449,4.145,4.1478,4.1497,4.147,4.1576,4.1553,4.1509,4.1437,4.1558,4.16,4.1618,4.1376,4.1374,4.1372,4.1371,0,0,4.1442,4.1437,4.1456,4.1462,4.1466,4.1499,4.1555,4.1582,4.1604,4.162,4.1663,4.1716,4.1674,4.1688,4.1661,4.1703,4.1815,4.1653,4.1652,4.1679,4.1927,4.1958,4.1979,4.1787,4.1791,4.1793,4.1925,0,4.1582,4.1675,4.1643,4.1738,4.1776,4.1717,4.1765,4.1772,4.176,4.1791,4.1779,4.1815,4.1759,4.1766,4.1805,4.1793,4.1863,4.1784,4.1825,4.1827,4.1821,4.2002,4.2035,4.2159,4.1942,4.1945,4.1947,0,4.1758,4.1777,4.1876,4.1869,4.1884,4.1928,4.1948,4.198,4.1986,4.1974,4.1989,4.1953,4.2005,4.1936,4.2007,4.1953,4.1969,4.1966,4.1969,4.1969,4.1892,4.2003,4.2199,4.2216,4.1973,4.1971,4.1969,0,4.1895,4.1947,4.2011,4.2019,4.2015,4.2046,4.2046,4.2048,4.2065,4.2084,4.2094,4.212,4.2132,4.2152,4.2123,4.2076,4.2197,4.2126,4.2187,4.2187,4.2212,4.221,4.2409,4.2229,4.2229,4.2228,4.2228,0,4.2053,4.2114,4.2073,4.2112,4.2179,4.214,4.2207,4.2201,4.2203,4.2239,4.2191,4.2225,4.2186,4.2218,4.2196,4.2255,4.2263,4.2253,4.2246,4.2255,4.2256,4.2262,4.2252,4.2233,4.2232,4.2231,4.223,0,4.2217,4.2192,4.2257,4.2247,4.2246,4.2295,4.2286,4.2321,4.2306,4.2352,4.2361,4.2337,4.2371,4.2344,4.2379,4.2364,4.2441,4.2424,4.2439,4.2432,4.2492,4.2486,4.2699,4.2724,4.2532,4.2534,4.2535,0,4.2317,4.2363,4.2356,4.2376,4.2378,4.2412,4.2429,4.2393,4.2412,4.2422,4.2455,4.2485,4.2506,4.2563,4.2548,4.2573,4.2553,4.2627,4.2557,4.2564,4.255,4.2546,4.2548,4.264,4.2642,4.2644,4.2645,0,4.2496,4.2481,4.2506,4.2527,4.2548,4.2563,4.2574,4.2594,4.2557,4.2581,4.2614,4.2631,4.2664,4.2693,4.2712,4.2711,4.2672,4.2668,4.2682,4.2691,4.2695,4.2689,4.2473,4.2662,4.2661,4.266,4.2659,4.2658,4.2628,4.2664,4.2664,4.2694,4.2698,4.2709,4.274,4.2728,4.2755,4.2778,4.2756,4.2795,4.2798,4.282,4.2824,4.2853,4.2823,4.2845,4.285,4.2855,4.2861,4.2694,4.2857,4.2857,4.2856,4.2856,4.2856,0,4.2801,4.2797,4.2825,4.284,4.2863,4.2824,4.2834,4.2855,4.289,4.2896,4.2917,4.2954,4.2981,4.2968,4.2992,4.3018,4.3,4.3025,4.3021,4.302,4.2889,4.2872,4.3039,4.3039,4.3039,4.3038,4.3038,4.3038,4.2893,4.295,4.2935,4.2993,4.2989,4.3026,4.3035,4.3044,4.3048,4.309,4.3112,4.3104,4.3101,4.3124,4.3147,4.3142,4.3152,4.3182,4.3171,4.3048,4.303,4.3013,4.2996,4.3186,4.3186,4.3299,4.33,4.3301]},{"header":{"parameterUnit":"m.s-1","parameterCategory":1,"la1":30.2991,"la2":30.254,"lo1":-89.0895,"lo2":-89.0444,"dy":0.0017,"dx":0.0017,"nx":28,"ny":28,"refTime":"2023-08-10T03:00:00:Z","depth":0,"parameterNumber":3,"parameterNumberName":"V-component_of_WINDS"},"data":[0,0,0,0,0,0,0,0,0,0,0,0,0,0,0,0,0,0,0,0,0,0,0,0,0,0,0,0,0,0,0,0,0,0,0,0,0,0,0,0,0,0,0,0,0,0,0,0,0,0,0,0,0,0,0,0,0,0,5.4801,5.4802,0,5.4919,5.492,5.4921,5.4912,5.4911,5.4909,5.4907,5.5022,5.5027,5.5031,0,0,0,0,0,0,0,0,0,0,0,0,0,5.456,5.4565,5.48,5.4802,5.4803,5.4918,5.492,5.4921,5.4913,5.491,5.4908,5.4906,5.5021,5.5026,5.5032,0,0,0,0,0,0,0,0,0,0,0,0,0,5.467,5.4566,5.48,5.4813,5.4815,5.4918,5.492,5.4922,5.4913,5.491,5.4908,5.4905,5.5019,5.5026,5.5033,5.5129,0,0,5.5054,5.5057,0,0,0,0,0,0,0,0,5.4664,5.4679,5.481,5.4812,5.4815,5.4898,5.4877,5.4991,5.4914,5.4876,5.4907,5.4904,5.4983,5.4992,5.502,5.5134,5.5139,5.5055,5.5059,5.5062,5.5064,0,0,0,0,0,0,0,5.4656,5.4674,5.4847,5.4811,5.4815,5.481,5.4823,5.4899,5.4942,5.4879,5.4879,5.4893,5.4984,5.5013,5.5023,5.5141,5.5055,5.5061,5.5065,5.5068,5.5335,5.5338,0,0,0,0,0,0,5.4647,5.4667,5.4843,5.485,5.4732,5.4817,5.4831,5.4874,5.4941,5.4949,5.4895,5.4892,5.5003,5.5015,5.5027,5.5141,5.5062,5.5069,5.5073,5.5332,5.5336,5.5339,0,0,0,0,0,0,5.4641,5.4662,5.4838,5.4759,5.4781,5.4824,5.4872,5.4878,5.4908,5.4954,5.4961,5.4918,5.5001,5.5017,5.5103,5.5145,5.5072,5.5078,5.5329,5.5333,5.5337,5.5372,0,0,0,0,0,0,5.4635,5.4661,5.4699,5.476,5.4785,5.4915,5.4875,5.4882,5.492,5.4918,5.4977,5.4984,5.5,5.5092,5.511,5.5153,5.5084,5.5325,5.5331,5.5336,5.5367,5.5377,5.5385,0,0,0,0,0,5.4626,5.4704,5.4701,5.4723,5.4835,5.4917,5.4932,5.495,5.4924,5.4962,5.4991,5.4983,5.5138,5.5101,5.5121,5.5167,5.5322,5.5329,5.5335,5.5363,5.5375,5.5385,0,0,0,0,0,0,5.4646,5.4712,5.471,5.481,5.4858,5.4916,5.4964,5.4962,5.5017,5.5012,5.5031,5.5044,5.513,5.5157,5.5115,5.5262,5.5226,5.5237,5.5241,5.5252,5.5261,5.5252,5.5089,0,0,0,0,0,5.4662,5.4726,5.4779,5.4862,5.4887,5.4921,5.4958,5.4968,5.5018,5.5037,5.5073,5.512,5.5179,5.5217,5.5275,5.5371,5.5382,5.5412,5.5421,5.5429,5.5437,5.5487,5.55,5.536,5.536,5.536,0,0,5.4696,5.474,5.4779,5.4867,5.4906,5.4968,5.4939,5.5007,5.5053,5.5047,5.513,5.5158,5.5211,5.5302,5.5344,5.5328,5.5478,5.5437,5.5442,5.5447,5.5495,5.5508,5.552,5.5364,5.5363,5.5363,0,0,5.4789,5.483,5.4902,5.4942,5.5,5.5023,5.504,5.5098,5.5116,5.52,5.5197,5.525,5.5353,5.539,5.5422,5.5527,5.552,5.5545,5.5591,5.564,5.5651,5.5661,5.5695,5.5708,5.5553,5.5554,5.5554,0,5.4823,5.4919,5.4939,5.5008,5.5046,5.5045,5.5116,5.5153,5.5227,5.5251,5.5232,5.5359,5.5395,5.5493,5.5519,5.5546,5.5564,5.5538,5.5648,5.5658,5.5667,5.57,5.5714,5.5556,5.5556,5.5555,5.5555,0,5.4956,5.5023,5.5074,5.5146,5.519,5.526,5.5288,5.5329,5.5335,5.5358,5.5442,5.5485,5.5549,5.5574,5.558,5.5672,5.5659,5.5644,5.5609,5.5683,5.5714,5.5727,5.556,5.5559,5.5558,5.5557,0,0,5.5065,5.5147,5.5165,5.5197,5.5261,5.5312,5.538,5.5444,5.5478,5.5528,5.5584,5.567,5.5655,5.5692,5.5702,5.5745,5.5821,5.5724,5.5725,5.5738,5.5922,5.5932,5.5946,5.5818,5.582,5.5822,5.5917,0,5.5163,5.5286,5.5305,5.5412,5.5472,5.5471,5.553,5.5574,5.5597,5.565,5.5674,5.5734,5.5712,5.5733,5.5776,5.5803,5.5858,5.5797,5.5867,5.5869,5.5851,5.5963,5.5974,5.6061,5.5929,5.5931,5.5933,0,5.5294,5.5348,5.5461,5.5515,5.5541,5.5594,5.5653,5.5704,5.5753,5.5766,5.5806,5.5811,5.5878,5.5841,5.5933,5.589,5.592,5.5937,5.5941,5.5946,5.5904,5.5969,5.6089,5.6101,5.5953,5.5951,5.595,0,5.5358,5.546,5.554,5.5568,5.5633,5.5669,5.5698,5.5745,5.5781,5.5832,5.5856,5.5914,5.5945,5.5988,5.6006,5.5978,5.6096,5.6061,5.6106,5.6106,5.6129,5.6127,5.6254,5.6152,5.6152,5.6152,5.6152,0,5.5464,5.5532,5.557,5.5619,5.5694,5.5715,5.5788,5.5815,5.5856,5.5908,5.5911,5.596,5.5982,5.6033,5.6048,5.612,5.6134,5.6145,5.6148,5.6144,5.6142,5.6162,5.6155,5.6155,5.6155,5.6154,5.6153,0,5.5548,5.5577,5.5663,5.5718,5.5733,5.5786,5.5832,5.5878,5.59,5.5966,5.5982,5.6017,5.6077,5.6101,5.6174,5.6183,5.6265,5.6264,5.6249,5.6249,5.6292,5.6287,5.6434,5.6453,5.6342,5.6343,5.6344,0,5.5613,5.5666,5.5726,5.5762,5.5792,5.585,5.5887,5.5908,5.5946,5.6005,5.6043,5.6103,5.6152,5.6248,5.6278,5.6333,5.6332,5.638,5.634,5.6333,5.6329,5.6325,5.6329,5.6386,5.6387,5.6388,5.6389,0,5.5723,5.5734,5.5789,5.5849,5.5893,5.5941,5.5987,5.6015,5.6043,5.6085,5.6147,5.6186,5.626,5.6319,5.6375,5.6402,5.6399,5.6402,5.6414,5.641,5.6398,5.6402,5.6267,5.6398,5.6397,5.6396,5.6396,5.6395,5.5798,5.5844,5.5893,5.5953,5.599,5.6032,5.6078,5.6106,5.6159,5.6222,5.6231,5.6296,5.6341,5.6417,5.6446,5.6495,5.6482,5.6502,5.6506,5.651,5.6512,5.6392,5.6506,5.6506,5.6506,5.6505,5.6505,0,5.5907,5.5938,5.5993,5.6057,5.6104,5.61,5.6149,5.6188,5.6246,5.6289,5.6337,5.6407,5.6463,5.6498,5.6554,5.6587,5.6587,5.6601,5.6597,5.6603,5.6522,5.6504,5.66,5.66,5.66,5.66,5.66,5.66,5.5968,5.6045,5.6061,5.6154,5.6185,5.625,5.6279,5.6317,5.6351,5.6429,5.6476,5.6499,5.6537,5.6596,5.6646,5.6655,5.6674,5.6689,5.6695,5.6619,5.6609,5.6599,5.6582,5.6693,5.6693,5.6772,5.6773,5.6773]}]]